• In Belarus
  • List of Countries
  • For 7 days
  • Water Temperature
  • Satellite Maps
  • Weather Map
  • Weather Widgets
  • user-avatar
    Login

    Hourly Weather Klagenfurt

    Today, 25 September, Monday

    Time Temperature Precipitation Wind Pressure Humidity
    00:00 +9°C° 0.5 mm 1 mps 692 mmHg 95%
    01:00 +9°C° 0.5 mm 1 mps 692 mmHg 96%
    02:00 +9°C° 0.5 mm 1 mps 692 mmHg 96%
    03:00 +9°C° 0.5 mm 1 mps 692 mmHg 96%
    04:00 +9°C° 0.5 mm 1 mps 692 mmHg 96%
    05:00 +9°C° 0.4 mm 1 mps 692 mmHg 95%
    06:00 +9°C° 0.4 mm 1 mps 692 mmHg 95%
    07:00 +9°C° 0.4 mm 1 mps 692 mmHg 95%
    08:00 +10°C° 0.6 mm 1 mps 692 mmHg 92%
    09:00 +11°C° 0.6 mm 1 mps 692 mmHg 89%
    10:00 +11°C° 0.6 mm 1 mps 692 mmHg 87%
    11:00 +12°C° 0.4 mm 1 mps 692 mmHg 85%
    12:00 +12°C° 0.4 mm 1 mps 692 mmHg 83%
    13:00 +13°C° 0.4 mm 1 mps 692 mmHg 81%
    14:00 +13°C° 0.2 mm 1 mps 692 mmHg 81%
    15:00 +13°C° 0.2 mm 1 mps 692 mmHg 81%
    16:00 +13°C° 0.2 mm 1 mps 692 mmHg 81%
    17:00 +12°C° 0.1 mm 1 mps 692 mmHg 85%
    18:00 +10°C° 0.1 mm 1 mps 692 mmHg 89%
    19:00 +9°C° 0.1 mm 1 mps 692 mmHg 93%
    20:00 +9°C° 0.1 mm 1 mps 692 mmHg 94%
    21:00 +9°C° 0.1 mm 1 mps 693 mmHg 94%
    22:00 +9°C° 0.1 mm 1 mps 693 mmHg 94%
    23:00 +9°C° 0 mm 1 mps 693 mmHg 94%

    Tomorrow, 26 September, Tuesday

    Time Temperature Precipitation Wind Pressure Humidity
    00:00 +8°C° 0 mm 1 mps 693 mmHg 95%
    01:00 +8°C° 0 mm 1 mps 693 mmHg 95%
    02:00 +8°C° 0 mm 1 mps 692 mmHg 95%
    03:00 +8°C° 0 mm 1 mps 692 mmHg 96%
    04:00 +7°C° 0 mm 1 mps 692 mmHg 96%
    05:00 +8°C° 0 mm 1 mps 692 mmHg 95%
    06:00 +8°C° 0 mm 1 mps 693 mmHg 94%
    07:00 +8°C° 0 mm 1 mps 693 mmHg 93%
    08:00 +10°C° 0.1 mm 1 mps 693 mmHg 88%
    09:00 +12°C° 0.1 mm 1 mps 693 mmHg 82%
    10:00 +13°C° 0.1 mm 1 mps 694 mmHg 77%
    11:00 +13°C° 0.1 mm 1 mps 694 mmHg 76%
    12:00 +14°C° 0.1 mm 1 mps 694 mmHg 75%
    13:00 +14°C° 0.1 mm 2 mps 694 mmHg 74%
    14:00 +14°C° 0.1 mm 1 mps 694 mmHg 76%
    15:00 +13°C° 0.1 mm 1 mps 694 mmHg 78%
    16:00 +13°C° 0.1 mm 1 mps 693 mmHg 80%
    17:00 +12°C° 0.1 mm 1 mps 693 mmHg 85%
    18:00 +11°C° 0.1 mm 1 mps 694 mmHg 89%
    19:00 +10°C° 0.1 mm 1 mps 694 mmHg 94%
    20:00 +10°C° 0.2 mm 1 mps 694 mmHg 93%
    21:00 +10°C° 0.2 mm 1 mps 694 mmHg 93%
    22:00 +10°C° 0.2 mm 1 mps 694 mmHg 93%
    23:00 +10°C° 0.1 mm 1 mps 694 mmHg 93%

    Day after tomorrow, 27 September, Wednesday

    Time Temperature Precipitation Wind Pressure Humidity
    00:00 +10°C° 0.1 mm 1 mps 694 mmHg 93%
    01:00 +10°C° 0.1 mm 1 mps 694 mmHg 93%
    02:00 +9°C° 0 mm 1 mps 694 mmHg 94%
    03:00 +9°C° 0 mm 1 mps 694 mmHg 94%
    04:00 +9°C° 0 mm 1 mps 694 mmHg 94%
    05:00 +9°C° 0.2 mm 1 mps 694 mmHg 94%
    06:00 +10°C° 0.2 mm 1 mps 694 mmHg 93%
    07:00 +10°C° 0.2 mm 1 mps 695 mmHg 93%
    08:00 +11°C° 0.5 mm 1 mps 695 mmHg 90%
    09:00 +12°C° 0.5 mm 1 mps 695 mmHg 87%
    10:00 +13°C° 0.5 mm 1 mps 695 mmHg 84%
    11:00 +13°C° 0.4 mm 1 mps 695 mmHg 83%
    12:00 +14°C° 0.4 mm 1 mps 695 mmHg 83%
    13:00 +14°C° 0.4 mm 1 mps 695 mmHg 82%
    14:00 +14°C° 0.3 mm 1 mps 695 mmHg 83%
    15:00 +14°C° 0.3 mm 1 mps 695 mmHg 83%
    16:00 +14°C° 0.3 mm 1 mps 695 mmHg 84%
    17:00 +13°C° 0.1 mm 1 mps 695 mmHg 88%
    18:00 +12°C° 0.1 mm 1 mps 695 mmHg 92%
    19:00 +10°C° 0.1 mm 1 mps 695 mmHg 96%
    20:00 +10°C° 0.1 mm 1 mps 695 mmHg 96%
    21:00 +10°C° 0.1 mm 1 mps 696 mmHg 96%
    22:00 +9°C° 0.1 mm 1 mps 696 mmHg 96%
    23:00 +9°C° 0 mm 1 mps 696 mmHg 96%

    28 September, Thursday

    Time Temperature Precipitation Wind Pressure Humidity
    00:00 +9°C° 0 mm 1 mps 695 mmHg 96%
    01:00 +9°C° 0 mm 1 mps 695 mmHg 96%
    02:00 +8°C° 0 mm 1 mps 695 mmHg 96%
    03:00 +8°C° 0 mm 1 mps 695 mmHg 96%
    04:00 +8°C° 0 mm 1 mps 695 mmHg 96%
    05:00 +8°C° 0 mm 1 mps 695 mmHg 95%
    06:00 +8°C° 0 mm 1 mps 695 mmHg 94%
    07:00 +9°C° 0 mm 1 mps 695 mmHg 94%
    08:00 +10°C° 0 mm 1 mps 696 mmHg 88%
    09:00 +12°C° 0 mm 1 mps 696 mmHg 82%
    10:00 +13°C° 0 mm 1 mps 696 mmHg 76%
    11:00 +14°C° 0 mm 1 mps 696 mmHg 73%
    12:00 +15°C° 0 mm 1 mps 696 mmHg 69%
    13:00 +16°C° 0 mm 2 mps 696 mmHg 66%
    14:00 +15°C° 0 mm 2 mps 696 mmHg 68%
    15:00 +15°C° 0 mm 2 mps 696 mmHg 70%
    16:00 +15°C° 0 mm 2 mps 696 mmHg 72%
    17:00 +13°C° 0 mm 1 mps 695 mmHg 79%
    18:00 +11°C° 0 mm 1 mps 695 mmHg 87%
    19:00 +10°C° 0 mm 1 mps 695 mmHg 94%
    20:00 +10°C° 0 mm 1 mps 695 mmHg 94%
    21:00 +9°C° 0 mm 1 mps 695 mmHg 94%
    22:00 +9°C° 0 mm 1 mps 695 mmHg 94%
    23:00 +9°C° 0 mm 1 mps 695 mmHg 95%

    29 September, Friday

    Time Temperature Precipitation Wind Pressure Humidity
    00:00 +9°C° 0 mm 1 mps 695 mmHg 95%
    01:00 +8°C° 0 mm 1 mps 695 mmHg 96%
    02:00 +8°C° 0 mm 1 mps 695 mmHg 96%
    03:00 +8°C° 0 mm 1 mps 695 mmHg 96%
    04:00 +7°C° 0 mm 1 mps 694 mmHg 96%
    05:00 +8°C° 0 mm 1 mps 694 mmHg 95%
    06:00 +8°C° 0 mm 1 mps 694 mmHg 93%
    07:00 +8°C° 0 mm 1 mps 694 mmHg 92%
    08:00 +10°C° 0 mm 1 mps 695 mmHg 82%
    09:00 +13°C° 0 mm 1 mps 695 mmHg 71%
    10:00 +15°C° 0 mm 1 mps 695 mmHg 61%
    11:00 +16°C° 0 mm 1 mps 695 mmHg 59%
    12:00 +16°C° 0 mm 2 mps 695 mmHg 57%
    13:00 +17°C° 0 mm 2 mps 695 mmHg 55%
    14:00 +16°C° 0 mm 2 mps 694 mmHg 58%
    15:00 +16°C° 0 mm 2 mps 694 mmHg 61%
    16:00 +15°C° 0 mm 1 mps 694 mmHg 64%
    17:00 +13°C° 0 mm 1 mps 693 mmHg 72%
    18:00 +11°C° 0 mm 1 mps 693 mmHg 80%
    19:00 +9°C° 0 mm 1 mps 693 mmHg 88%
    20:00 +9°C° 0 mm 1 mps 693 mmHg 89%
    21:00 +8°C° 0 mm 1 mps 693 mmHg 90%
    22:00 +7°C° 0 mm 0 mps 693 mmHg 92%
    23:00 +7°C° 0 mm 0 mps 693 mmHg 92%

    30 September, Saturday

    Time Temperature Precipitation Wind Pressure Humidity
    00:00 +7°C° 0 mm 1 mps 693 mmHg 93%
    01:00 +7°C° 0 mm 1 mps 692 mmHg 93%
    02:00 +7°C° 0 mm 1 mps 692 mmHg 93%
    03:00 +7°C° 0 mm 1 mps 692 mmHg 93%
    04:00 +6°C° 0 mm 1 mps 692 mmHg 94%
    05:00 +7°C° 0 mm 1 mps 692 mmHg 92%
    06:00 +7°C° 0 mm 1 mps 692 mmHg 91%
    07:00 +7°C° 0 mm 1 mps 692 mmHg 90%
    08:00 +10°C° 0 mm 1 mps 692 mmHg 79%
    09:00 +12°C° 0 mm 1 mps 693 mmHg 68%
    10:00 +15°C° 0 mm 1 mps 693 mmHg 57%
    11:00 +15°C° 0 mm 1 mps 693 mmHg 56%
    12:00 +16°C° 0 mm 1 mps 693 mmHg 54%
    13:00 +18°C° 0 mm 1 mps 693 mmHg 52%
    14:00 +16°C° 0 mm 1 mps 692 mmHg 55%
    15:00 +16°C° 0 mm 1 mps 692 mmHg 57%
    16:00 +15°C° 0 mm 1 mps 692 mmHg 60%
    17:00 +13°C° 0 mm 1 mps 691 mmHg 68%
    18:00 +11°C° 0 mm 1 mps 691 mmHg 76%
    19:00 +8°C° 0 mm 0 mps 691 mmHg 84%
    20:00 +7°C° 0 mm 0 mps 691 mmHg 85%
    21:00 +7°C° 0 mm 0 mps 691 mmHg 87%
    22:00 +6°C° 0 mm 0 mps 691 mmHg 88%
    23:00 +6°C° 0 mm 0 mps 691 mmHg 88%
    Show more